{"data":{"norad_id":59885,"epoch":"2026-05-25T04:05:30.405120Z","epoch_age_seconds":53568,"freshness":"FRESH","line1":"1 59885U 24100A   26145.17049080  .00000727  00000+0  35919-4 0  9995","line2":"2 59885  43.0013  53.4754 0001113 266.2881  93.7844 15.27586074112751","mean_motion":15.27586074,"eccentricity":0.0001113,"inclination_deg":43.0013,"raan_deg":53.4754,"arg_perigee_deg":266.2881,"mean_anomaly_deg":93.7844,"bstar":3.5919e-5,"rev_number":11275,"period_min":94.266373889449,"perigee_km":482.26726037061,"apogee_km":483.79455634701,"semimajor_km":6861.1679083588,"source":"CELESTRAK","updated_at":"2026-05-25T13:38:19.095376Z"}}